Location: Les Jeannots
(43.2262°N, 5.5774°E)
Time: 17:39:23
(UTC+00:00)

Helios 1B rocket - Pass Details

Date: 05 July 2020
Orbit: 574 x 584 km, 98.1° (Epoch: 12 August)

Event Time Altitude Azimuth Distance (km) Brightness Sun altitude
Rises 23:50:06 0° 18° (NNE) 2,812 7.2 -24.1°
Reaches altitude 10° 23:52:19 10° 24° (NNE) 1,906 6.0 -24.1°
Enters shadow 23:56:03 49° 84° (E) 754 3.0 -24.0°
